HA77S LIER-DTKA

Flight info

Callsign HA77S
Flight time 1h 23m
Altitude 7000
Route NIVAB R723 DOPEL G869 GALIT
Aircraft P06T/L-SBDGRY/S

Departure

Time 2026-04-29 17:34
Airport Oristano-Fenosu Airport (LIER)

Arrival

Time 2026-04-29 18:57
Airport Tabarka-Aïn Draham International Airport (DTKA)
Time Latitude Longitude Altitude Speed Heading
2026-04-29 17:20 39.89975 8.64032 40 ft 0 kts 339°
2026-04-29 17:31 39.89978 8.64030 40 ft 4 kts 339°
2026-04-29 17:31 39.89984 8.64027 40 ft 1 kts 339°
2026-04-29 17:32 39.89982 8.63958 39 ft 12 kts 258°
2026-04-29 17:32 39.89966 8.63861 37 ft 12 kts 256°
2026-04-29 17:32 39.89928 8.63807 37 ft 0 kts 200°
2026-04-29 17:33 39.89926 8.63806 37 ft 2 kts 200°
2026-04-29 17:33 39.89886 8.63825 37 ft 10 kts 134°
2026-04-29 17:33 39.89705 8.64055 39 ft 65 kts 135°
2026-04-29 17:33 39.89310 8.64562 41 ft 90 kts 133°
2026-04-29 17:34 39.88865 8.65053 221 ft 85 kts 143°
2026-04-29 17:34 39.88269 8.65419 318 ft 105 kts 163°
2026-04-29 17:34 39.87515 8.65443 505 ft 113 kts 181°
2026-04-29 17:34 39.86723 8.65240 666 ft 120 kts 203°
2026-04-29 17:35 39.85785 8.64453 935 ft 120 kts 201°
2026-04-29 17:35 39.84488 8.63912 1269 ft 117 kts 191°
2026-04-29 17:35 39.83699 8.63730 1475 ft 114 kts 187°
2026-04-29 17:36 39.82922 8.63588 1675 ft 113 kts 186°
2026-04-29 17:36 39.82155 8.63470 1874 ft 111 kts 185°
2026-04-29 17:36 39.81383 8.63364 2076 ft 110 kts 185°
2026-04-29 17:36 39.80629 8.63266 2275 ft 109 kts 185°
2026-04-29 17:37 39.79870 8.63172 2478 ft 108 kts 186°
2026-04-29 17:37 39.79127 8.63082 2677 ft 107 kts 186°
2026-04-29 17:37 39.78386 8.62993 2878 ft 107 kts 186°
2026-04-29 17:37 39.77658 8.62906 3075 ft 105 kts 186°
2026-04-29 17:38 39.76935 8.62820 3275 ft 103 kts 187°
2026-04-29 17:38 39.76226 8.62736 3473 ft 102 kts 187°
2026-04-29 17:38 39.75522 8.62653 3672 ft 101 kts 188°
2026-04-29 17:38 39.74821 8.62570 3872 ft 101 kts 188°
2026-04-29 17:39 39.74124 8.62488 4051 ft 101 kts 188°
2026-04-29 17:39 39.73420 8.62404 4227 ft 101 kts 189°
2026-04-29 17:39 39.72726 8.62322 4401 ft 101 kts 189°
2026-04-29 17:39 39.72022 8.62239 4576 ft 101 kts 189°
2026-04-29 17:40 39.71324 8.62156 4749 ft 101 kts 190°
2026-04-29 17:40 39.70621 8.62073 4924 ft 101 kts 190°
2026-04-29 17:40 39.69918 8.61990 5098 ft 101 kts 191°
2026-04-29 17:40 39.69218 8.61908 5272 ft 101 kts 191°
2026-04-29 17:41 39.68521 8.61825 5445 ft 101 kts 192°
2026-04-29 17:41 39.67816 8.61741 5599 ft 102 kts 192°
2026-04-29 17:41 39.67107 8.61658 5748 ft 103 kts 192°
2026-04-29 17:41 39.66398 8.61575 5894 ft 101 kts 192°
2026-04-29 17:42 39.65700 8.61492 6022 ft 101 kts 193°
2026-04-29 17:42 39.64997 8.61409 6146 ft 102 kts 193°
2026-04-29 17:42 39.64297 8.61326 6268 ft 102 kts 193°
2026-04-29 17:42 39.63588 8.61242 6392 ft 102 kts 193°
2026-04-29 17:43 39.62880 8.61159 6514 ft 102 kts 194°
2026-04-29 17:43 39.62170 8.61075 6637 ft 102 kts 194°
2026-04-29 17:43 39.61467 8.60992 6758 ft 102 kts 194°
2026-04-29 17:43 39.60753 8.60908 6881 ft 103 kts 194°
2026-04-29 17:44 39.60040 8.60824 7003 ft 103 kts 194°
2026-04-29 17:44 39.59327 8.60740 7125 ft 103 kts 195°
2026-04-29 17:44 39.58617 8.60656 7246 ft 103 kts 195°
2026-04-29 17:44 39.57903 8.60572 7368 ft 103 kts 195°
2026-04-29 17:45 39.57189 8.60488 7490 ft 103 kts 195°
2026-04-29 17:45 39.56477 8.60404 7611 ft 103 kts 195°
2026-04-29 17:45 39.55761 8.60320 7732 ft 103 kts 196°
2026-04-29 17:45 39.55040 8.60235 7854 ft 103 kts 196°
2026-04-29 17:46 39.54328 8.60151 7975 ft 104 kts 196°
2026-04-29 17:46 39.53616 8.60068 8094 ft 104 kts 196°
2026-04-29 17:46 39.52887 8.59981 8193 ft 106 kts 196°
2026-04-29 17:46 39.52145 8.59893 8292 ft 107 kts 196°
2026-04-29 17:47 39.51397 8.59805 8390 ft 109 kts 196°
2026-04-29 17:47 39.50641 8.59716 8488 ft 110 kts 196°
2026-04-29 17:47 39.49872 8.59626 8586 ft 110 kts 196°
2026-04-29 17:47 39.49106 8.59536 8683 ft 111 kts 196°
2026-04-29 17:48 39.48334 8.59445 8758 ft 113 kts 196°
2026-04-29 17:48 39.47539 8.59351 8832 ft 115 kts 196°
2026-04-29 17:48 39.46728 8.59256 8896 ft 118 kts 196°
2026-04-29 17:48 39.45909 8.59159 8945 ft 120 kts 196°
2026-04-29 17:49 39.45054 8.59057 8941 ft 126 kts 195°
2026-04-29 17:49 39.44168 8.58953 8939 ft 130 kts 195°
2026-04-29 17:49 39.43263 8.58848 8938 ft 132 kts 195°
2026-04-29 17:49 39.42343 8.58741 8937 ft 133 kts 195°
2026-04-29 17:50 39.41415 8.58632 8937 ft 134 kts 195°
2026-04-29 17:50 39.40492 8.58525 8937 ft 134 kts 194°
2026-04-29 17:50 39.39562 8.58416 8936 ft 134 kts 194°
2026-04-29 17:50 39.38632 8.58308 8936 ft 135 kts 194°
2026-04-29 17:51 39.37693 8.58198 8936 ft 135 kts 194°
2026-04-29 17:51 39.36758 8.58089 8936 ft 135 kts 194°
2026-04-29 17:51 39.35833 8.57981 8936 ft 135 kts 194°
2026-04-29 17:51 39.34898 8.57871 8936 ft 135 kts 194°
2026-04-29 17:52 39.33958 8.57762 8936 ft 135 kts 194°
2026-04-29 17:52 39.33341 8.57690 8936 ft 135 kts 194°
2026-04-29 17:52 39.32087 8.57543 8936 ft 135 kts 194°
2026-04-29 17:52 39.31154 8.57434 8936 ft 135 kts 194°
2026-04-29 17:53 39.30224 8.57326 8936 ft 135 kts 194°
2026-04-29 17:53 39.29294 8.57217 8936 ft 135 kts 194°
2026-04-29 17:53 39.28359 8.57108 8936 ft 135 kts 194°
2026-04-29 17:53 39.27417 8.56998 8936 ft 135 kts 194°
2026-04-29 17:54 39.26491 8.56890 8936 ft 135 kts 194°
2026-04-29 17:54 39.25561 8.56781 8936 ft 135 kts 194°
2026-04-29 17:54 39.24619 8.56672 8936 ft 135 kts 194°
2026-04-29 17:54 39.23680 8.56562 8936 ft 135 kts 194°
2026-04-29 17:55 39.22755 8.56454 8936 ft 135 kts 194°
2026-04-29 17:55 39.21822 8.56346 8936 ft 135 kts 194°
2026-04-29 17:55 39.20884 8.56236 8936 ft 135 kts 194°
2026-04-29 17:55 39.19946 8.56127 8936 ft 135 kts 194°
2026-04-29 17:56 39.19011 8.56018 8936 ft 135 kts 194°
2026-04-29 17:56 39.18084 8.55910 8936 ft 135 kts 194°
2026-04-29 17:56 39.17143 8.55801 8936 ft 135 kts 194°
2026-04-29 17:56 39.16206 8.55692 8936 ft 135 kts 194°
2026-04-29 17:57 39.15271 8.55583 8936 ft 135 kts 194°
2026-04-29 17:57 39.14345 8.55476 8936 ft 135 kts 194°
2026-04-29 17:57 39.13409 8.55367 8936 ft 135 kts 194°
2026-04-29 17:57 39.12790 8.55294 8936 ft 135 kts 194°
2026-04-29 17:58 39.11546 8.55150 8936 ft 135 kts 194°
2026-04-29 17:58 39.10607 8.55041 8936 ft 135 kts 194°
2026-04-29 17:58 39.09664 8.54932 8936 ft 135 kts 194°
2026-04-29 17:58 39.08737 8.54824 8936 ft 135 kts 194°
2026-04-29 17:59 39.07796 8.54715 8936 ft 135 kts 194°
2026-04-29 17:59 39.06861 8.54606 8936 ft 135 kts 194°
2026-04-29 17:59 39.05938 8.54499 8936 ft 135 kts 194°
2026-04-29 17:59 39.04996 8.54390 8936 ft 135 kts 194°
2026-04-29 18:00 39.04069 8.54283 8936 ft 135 kts 194°
2026-04-29 18:00 39.03128 8.54173 8937 ft 135 kts 194°
2026-04-29 18:00 39.02188 8.54064 8938 ft 135 kts 194°
2026-04-29 18:00 39.01254 8.53956 8939 ft 135 kts 194°
2026-04-29 18:01 39.00321 8.53848 8940 ft 135 kts 194°
2026-04-29 18:01 38.99390 8.53740 8941 ft 135 kts 194°
2026-04-29 18:01 38.98447 8.53630 8941 ft 135 kts 194°
2026-04-29 18:01 38.97516 8.53523 8942 ft 135 kts 194°
2026-04-29 18:02 38.96571 8.53413 8943 ft 135 kts 194°
2026-04-29 18:02 38.95640 8.53306 8944 ft 135 kts 194°
2026-04-29 18:02 38.94701 8.53197 8945 ft 135 kts 194°
2026-04-29 18:02 38.93766 8.53089 8946 ft 135 kts 194°
2026-04-29 18:03 38.92818 8.52980 8947 ft 136 kts 194°
2026-04-29 18:03 38.91880 8.52871 8947 ft 136 kts 194°
2026-04-29 18:03 38.90942 8.52763 8948 ft 136 kts 193°
2026-04-29 18:03 38.90000 8.52654 8949 ft 136 kts 193°
2026-04-29 18:04 38.89064 8.52546 8949 ft 136 kts 193°
2026-04-29 18:04 38.88114 8.52436 8949 ft 136 kts 193°
2026-04-29 18:04 38.87180 8.52329 8950 ft 136 kts 193°
2026-04-29 18:04 38.86244 8.52221 8950 ft 136 kts 193°
2026-04-29 18:05 38.85295 8.52112 8951 ft 136 kts 193°
2026-04-29 18:05 38.84353 8.52004 8952 ft 136 kts 193°
2026-04-29 18:05 38.83419 8.51896 8953 ft 136 kts 193°
2026-04-29 18:05 38.82478 8.51788 8953 ft 136 kts 193°
2026-04-29 18:06 38.81531 8.51679 8954 ft 136 kts 193°
2026-04-29 18:06 38.80589 8.51570 8955 ft 136 kts 193°
2026-04-29 18:06 38.79635 8.51465 8954 ft 137 kts 190°
2026-04-29 18:06 38.78733 8.51915 8954 ft 149 kts 142°
2026-04-29 18:07 38.78001 8.52886 8959 ft 150 kts 136°
2026-04-29 18:07 38.77301 8.53859 8959 ft 151 kts 136°
2026-04-29 18:07 38.76584 8.54863 8960 ft 151 kts 136°
2026-04-29 18:07 38.75877 8.55858 8960 ft 151 kts 136°
2026-04-29 18:08 38.75172 8.56849 8961 ft 151 kts 136°
2026-04-29 18:08 38.74456 8.57859 8962 ft 151 kts 136°
2026-04-29 18:08 38.73750 8.58855 8962 ft 151 kts 136°
2026-04-29 18:08 38.73042 8.59853 8963 ft 152 kts 136°
2026-04-29 18:09 38.72334 8.60851 8963 ft 152 kts 136°
2026-04-29 18:09 38.71624 8.61853 8963 ft 152 kts 136°
2026-04-29 18:09 38.70917 8.62850 8963 ft 152 kts 136°
2026-04-29 18:09 38.70206 8.63852 8963 ft 152 kts 136°
2026-04-29 18:10 38.69494 8.64856 8963 ft 152 kts 136°
2026-04-29 18:10 38.68782 8.65859 8963 ft 152 kts 136°
2026-04-29 18:10 38.68070 8.66861 8963 ft 152 kts 136°
2026-04-29 18:10 38.67355 8.67868 8963 ft 152 kts 136°
2026-04-29 18:11 38.66650 8.68861 8963 ft 152 kts 136°
2026-04-29 18:11 38.65933 8.69869 8964 ft 152 kts 136°
2026-04-29 18:11 38.65226 8.70864 8964 ft 152 kts 136°
2026-04-29 18:11 38.64516 8.71863 8964 ft 152 kts 136°
2026-04-29 18:12 38.63798 8.72873 8964 ft 152 kts 136°
2026-04-29 18:12 38.63086 8.73872 8964 ft 152 kts 136°
2026-04-29 18:12 38.62375 8.74871 8964 ft 152 kts 136°
2026-04-29 18:12 38.61667 8.75864 8983 ft 151 kts 135°
2026-04-29 18:13 38.60959 8.76859 8990 ft 151 kts 135°
2026-04-29 18:13 38.60252 8.77851 8991 ft 152 kts 135°
2026-04-29 18:13 38.59530 8.78865 8991 ft 152 kts 135°
2026-04-29 18:13 38.58816 8.79866 8991 ft 152 kts 135°
2026-04-29 18:14 38.58101 8.80869 8991 ft 152 kts 135°
2026-04-29 18:14 38.57391 8.81864 8991 ft 153 kts 135°
2026-04-29 18:14 38.56670 8.82876 8991 ft 153 kts 135°
2026-04-29 18:14 38.55960 8.83870 8991 ft 153 kts 135°
2026-04-29 18:15 38.55239 8.84879 8991 ft 153 kts 135°
2026-04-29 18:15 38.54522 8.85885 8991 ft 153 kts 135°
2026-04-29 18:15 38.53802 8.86891 8991 ft 153 kts 135°
2026-04-29 18:15 38.53078 8.87882 8988 ft 152 kts 142°
2026-04-29 18:16 38.52145 8.88291 8993 ft 141 kts 186°
2026-04-29 18:16 38.51168 8.88325 8993 ft 141 kts 187°
2026-04-29 18:16 38.50187 8.88338 8992 ft 141 kts 187°
2026-04-29 18:16 38.49210 8.88346 8992 ft 141 kts 187°
2026-04-29 18:17 38.48223 8.88351 8992 ft 141 kts 187°
2026-04-29 18:17 38.47247 8.88355 8992 ft 141 kts 187°
2026-04-29 18:17 38.46254 8.88357 8992 ft 141 kts 187°
2026-04-29 18:17 38.45278 8.88359 8992 ft 141 kts 187°
2026-04-29 18:18 38.44296 8.88360 8992 ft 141 kts 187°
2026-04-29 18:18 38.43311 8.88361 8992 ft 141 kts 187°
2026-04-29 18:18 38.42325 8.88362 8992 ft 141 kts 187°
2026-04-29 18:18 38.41345 8.88362 8992 ft 141 kts 187°
2026-04-29 18:19 38.40376 8.88362 8992 ft 141 kts 187°
2026-04-29 18:19 38.39405 8.88362 8992 ft 141 kts 187°
2026-04-29 18:19 38.38420 8.88363 8992 ft 141 kts 187°
2026-04-29 18:19 38.37439 8.88362 8992 ft 141 kts 187°
2026-04-29 18:20 38.36449 8.88363 8992 ft 141 kts 187°
2026-04-29 18:20 38.35472 8.88363 8992 ft 141 kts 187°
2026-04-29 18:20 38.34491 8.88362 8992 ft 141 kts 187°
2026-04-29 18:20 38.33506 8.88363 8992 ft 141 kts 187°
2026-04-29 18:21 38.32529 8.88363 8992 ft 141 kts 187°
2026-04-29 18:21 38.31551 8.88363 8992 ft 141 kts 187°
2026-04-29 18:21 38.30570 8.88363 8992 ft 141 kts 187°
2026-04-29 18:21 38.29578 8.88363 8992 ft 141 kts 187°
2026-04-29 18:22 38.28593 8.88363 8992 ft 141 kts 187°
2026-04-29 18:22 38.27619 8.88363 8992 ft 141 kts 187°
2026-04-29 18:22 38.26631 8.88363 8992 ft 141 kts 187°
2026-04-29 18:22 38.25660 8.88363 8992 ft 141 kts 187°
2026-04-29 18:23 38.24669 8.88363 8992 ft 141 kts 187°
2026-04-29 18:23 38.23697 8.88362 8992 ft 141 kts 187°
2026-04-29 18:23 38.22712 8.88363 8993 ft 141 kts 187°
2026-04-29 18:23 38.21732 8.88363 8994 ft 141 kts 188°
2026-04-29 18:24 38.20746 8.88364 8996 ft 141 kts 188°
2026-04-29 18:24 38.19770 8.88363 8998 ft 141 kts 188°
2026-04-29 18:24 38.18777 8.88364 8999 ft 141 kts 188°
2026-04-29 18:24 38.17798 8.88365 9002 ft 141 kts 188°
2026-04-29 18:25 38.16822 8.88365 9002 ft 141 kts 188°
2026-04-29 18:25 38.15831 8.88364 9005 ft 141 kts 188°
2026-04-29 18:25 38.14859 8.88363 9007 ft 142 kts 188°
2026-04-29 18:25 38.13873 8.88364 9008 ft 142 kts 188°
2026-04-29 18:26 38.12877 8.88364 9010 ft 141 kts 188°
2026-04-29 18:26 38.11903 8.88365 9013 ft 141 kts 189°
2026-04-29 18:26 38.10918 8.88364 9011 ft 141 kts 188°
2026-04-29 18:26 38.09937 8.88363 9015 ft 142 kts 189°
2026-04-29 18:27 38.08950 8.88366 9016 ft 142 kts 189°
2026-04-29 18:27 38.07960 8.88363 9017 ft 143 kts 189°
2026-04-29 18:27 38.06965 8.88360 9018 ft 143 kts 189°
2026-04-29 18:27 38.05969 8.88366 9019 ft 143 kts 188°
2026-04-29 18:28 38.04980 8.88365 9016 ft 142 kts 189°
2026-04-29 18:28 38.03988 8.88361 9018 ft 143 kts 189°
2026-04-29 18:28 38.02987 8.88363 9017 ft 143 kts 189°
2026-04-29 18:28 38.02001 8.88364 9019 ft 143 kts 188°
2026-04-29 18:29 38.00992 8.88361 9019 ft 144 kts 189°
2026-04-29 18:29 38.00329 8.88364 9023 ft 142 kts 189°
2026-04-29 18:29 37.99015 8.88367 9016 ft 141 kts 189°
2026-04-29 18:29 37.98033 8.88365 9013 ft 142 kts 189°
2026-04-29 18:30 37.97043 8.88360 9020 ft 143 kts 188°
2026-04-29 18:30 37.96047 8.88364 9020 ft 143 kts 189°
2026-04-29 18:30 37.95056 8.88358 9020 ft 144 kts 189°
2026-04-29 18:30 37.94057 8.88363 9019 ft 143 kts 188°
2026-04-29 18:31 37.93059 8.88360 9021 ft 143 kts 188°
2026-04-29 18:31 37.92057 8.88365 9017 ft 143 kts 189°
2026-04-29 18:31 37.91059 8.88361 9016 ft 143 kts 188°
2026-04-29 18:31 37.90072 8.88360 9021 ft 143 kts 189°
2026-04-29 18:32 37.89068 8.88363 9015 ft 144 kts 188°
2026-04-29 18:32 37.87084 8.88362 9016 ft 143 kts 188°
2026-04-29 18:32 37.86084 8.88365 9018 ft 143 kts 189°
2026-04-29 18:33 37.85091 8.88363 9022 ft 143 kts 188°
2026-04-29 18:33 37.84098 8.88364 9020 ft 143 kts 189°
2026-04-29 18:33 37.83098 8.88363 9016 ft 142 kts 189°
2026-04-29 18:33 37.82116 8.88362 9014 ft 142 kts 188°
2026-04-29 18:34 37.81134 8.88364 9017 ft 141 kts 189°
2026-04-29 18:34 37.80479 8.88365 9017 ft 141 kts 189°
2026-04-29 18:34 37.79153 8.88362 9015 ft 143 kts 189°
2026-04-29 18:34 37.78165 8.88360 9019 ft 143 kts 188°
2026-04-29 18:35 37.77165 8.88365 9018 ft 142 kts 188°
2026-04-29 18:35 37.76176 8.88364 9018 ft 142 kts 189°
2026-04-29 18:35 37.75188 8.88363 9016 ft 142 kts 188°
2026-04-29 18:35 37.74195 8.88360 9018 ft 143 kts 189°
2026-04-29 18:36 37.73202 8.88360 9020 ft 143 kts 188°
2026-04-29 18:36 37.72208 8.88365 9018 ft 143 kts 189°
2026-04-29 18:36 37.71214 8.88366 9021 ft 143 kts 188°
2026-04-29 18:36 37.70217 8.88360 9017 ft 143 kts 189°
2026-04-29 18:37 37.69215 8.88361 9017 ft 144 kts 188°
2026-04-29 18:37 37.68205 8.88360 9019 ft 144 kts 188°
2026-04-29 18:37 37.67215 8.88367 9020 ft 143 kts 188°
2026-04-29 18:37 37.66221 8.88366 9018 ft 143 kts 189°
2026-04-29 18:38 37.65228 8.88360 9022 ft 143 kts 189°
2026-04-29 18:38 37.64233 8.88363 9015 ft 143 kts 188°
2026-04-29 18:38 37.63239 8.88364 9020 ft 142 kts 188°
2026-04-29 18:38 37.62254 8.88363 9018 ft 143 kts 188°
2026-04-29 18:39 37.61253 8.88359 9020 ft 143 kts 187°
2026-04-29 18:39 37.60265 8.88366 9019 ft 143 kts 187°
2026-04-29 18:39 37.59261 8.88361 9017 ft 144 kts 188°
2026-04-29 18:39 37.58267 8.88362 9018 ft 144 kts 189°
2026-04-29 18:40 37.57258 8.88361 9017 ft 144 kts 188°
2026-04-29 18:40 37.56271 8.88366 9021 ft 143 kts 188°
2026-04-29 18:40 37.55267 8.88363 9016 ft 145 kts 188°
2026-04-29 18:40 37.54266 8.88363 9022 ft 144 kts 189°
2026-04-29 18:41 37.51277 8.88365 9021 ft 143 kts 190°
2026-04-29 18:41 37.50283 8.88364 9018 ft 143 kts 189°
2026-04-29 18:42 37.49283 8.88360 9016 ft 144 kts 188°
2026-04-29 18:42 37.48286 8.88362 9019 ft 144 kts 188°
2026-04-29 18:42 37.47290 8.88364 9020 ft 143 kts 189°
2026-04-29 18:42 37.46297 8.88363 9019 ft 142 kts 189°
2026-04-29 18:43 37.45305 8.88361 9016 ft 142 kts 189°
2026-04-29 18:43 37.44327 8.88363 9016 ft 142 kts 188°
2026-04-29 18:43 37.43367 8.88364 9018 ft 141 kts 188°
2026-04-29 18:43 37.42393 8.88363 9018 ft 141 kts 189°
2026-04-29 18:44 37.41424 8.88364 9020 ft 142 kts 188°
2026-04-29 18:44 37.40431 8.88363 9018 ft 142 kts 189°
2026-04-29 18:44 37.39454 8.88363 9020 ft 141 kts 189°
2026-04-29 18:44 37.38468 8.88361 9014 ft 142 kts 189°
2026-04-29 18:45 37.37490 8.88362 9021 ft 142 kts 188°
2026-04-29 18:45 37.36518 8.88363 9018 ft 140 kts 189°
2026-04-29 18:45 37.35540 8.88359 9015 ft 141 kts 189°
2026-04-29 18:45 37.34569 8.88357 9023 ft 142 kts 189°
2026-04-29 18:46 37.33574 8.88361 9021 ft 142 kts 189°
2026-04-29 18:46 37.32587 8.88361 9018 ft 143 kts 189°
2026-04-29 18:46 37.31607 8.88363 9022 ft 142 kts 189°
2026-04-29 18:46 37.30632 8.88348 9022 ft 142 kts 189°
2026-04-29 18:47 37.29613 8.88328 8871 ft 148 kts 188°
2026-04-29 18:47 37.28609 8.88308 8723 ft 148 kts 190°
2026-04-29 18:47 37.27598 8.88288 8573 ft 148 kts 190°
2026-04-29 18:47 37.26575 8.88265 8427 ft 148 kts 189°
2026-04-29 18:48 37.25547 8.88249 8275 ft 146 kts 189°
2026-04-29 18:48 37.24533 8.88225 8122 ft 146 kts 190°
2026-04-29 18:48 37.23524 8.88209 7972 ft 147 kts 189°
2026-04-29 18:48 37.22502 8.88185 7825 ft 146 kts 190°
2026-04-29 18:49 37.21486 8.88168 7672 ft 146 kts 189°
2026-04-29 18:49 37.20482 8.88147 7519 ft 145 kts 188°
2026-04-29 18:49 37.19470 8.88128 7387 ft 143 kts 189°
2026-04-29 18:49 37.18498 8.88111 7291 ft 140 kts 191°
2026-04-29 18:50 37.17524 8.88087 7185 ft 139 kts 191°
2026-04-29 18:50 37.16565 8.88065 7083 ft 136 kts 190°
2026-04-29 18:50 37.15625 8.88056 6980 ft 134 kts 191°
2026-04-29 18:50 37.14684 8.88033 6865 ft 135 kts 193°
2026-04-29 18:51 37.13742 8.88014 6771 ft 135 kts 192°
2026-04-29 18:51 37.12788 8.87988 6623 ft 138 kts 191°
2026-04-29 18:51 37.11835 8.87965 6470 ft 137 kts 191°
2026-04-29 18:51 37.10889 8.87951 6321 ft 137 kts 188°
2026-04-29 18:52 37.09927 8.87936 6173 ft 137 kts 190°
2026-04-29 18:52 37.08974 8.87914 6012 ft 139 kts 191°
2026-04-29 18:52 37.07990 8.87887 5783 ft 145 kts 190°
2026-04-29 18:52 37.06965 8.87867 5543 ft 151 kts 189°
2026-04-29 18:53 37.05959 8.87648 5283 ft 142 kts 217°
2026-04-29 18:53 37.05344 8.86746 5028 ft 137 kts 237°
2026-04-29 18:53 37.04756 8.85812 4767 ft 138 kts 237°
2026-04-29 18:53 37.04260 8.84788 4521 ft 136 kts 244°
2026-04-29 18:54 37.03836 8.83730 4270 ft 136 kts 245°
2026-04-29 18:54 37.03415 8.82690 4000 ft 135 kts 245°
2026-04-29 18:54 37.02957 8.81652 3758 ft 135 kts 244°
2026-04-29 18:54 37.02519 8.80637 3491 ft 137 kts 227°
2026-04-29 18:55 37.01829 8.79825 3253 ft 137 kts 226°
2026-04-29 18:55 37.01036 8.79145 2985 ft 138 kts 219°
2026-04-29 18:55 37.00161 8.78728 2703 ft 143 kts 186°
2026-04-29 18:55 36.99193 8.79057 2603 ft 139 kts 171°
2026-04-29 18:56 36.98400 8.79721 2525 ft 145 kts 131°
2026-04-29 18:56 36.98222 8.81000 2461 ft 157 kts 89°
2026-04-29 18:56 36.98396 8.82322 1777 ft 151 kts 92°
2026-04-29 18:56 36.98241 8.83066 1668 ft 69 kts 158°
2026-04-29 18:57 36.97860 8.83469 1135 ft 69 kts 166°
2026-04-29 18:57 36.97629 8.83975 663 ft 97 kts 115°
2026-04-29 18:57 36.97425 8.84619 76 ft 72 kts 127°
2026-04-29 18:57 36.97379 8.84785 66 ft 0 kts 227°
2026-04-29 18:58 36.97379 8.84784 66 ft 0 kts 227°
2026-04-29 18:58 36.97379 8.84783 66 ft 0 kts 227°